• In Hungary
  • List of Countries
  • For 7 days
  • Water Temperature
  • Satellite Maps
  • Weather Map
  • News
  • Weather Widgets
  • user-avatar
    Login

    Hourly Weather Zolotaya Gora

    Today, 18 August, Saturday

    Time Temperature Precipitation Wind Pressure Humidity
    00:00 +16°C° 0 mm 5 mps 750 mmHg 69%
    01:00 +16°C° 0 mm 5 mps 750 mmHg 70%
    02:00 +15°C° 0 mm 5 mps 750 mmHg 72%
    03:00 +15°C° 0 mm 5 mps 751 mmHg 73%
    04:00 +14°C° 0 mm 5 mps 751 mmHg 73%
    05:00 +14°C° 0 mm 5 mps 751 mmHg 74%
    06:00 +14°C° 0 mm 5 mps 751 mmHg 74%
    07:00 +15°C° 0 mm 6 mps 751 mmHg 67%
    08:00 +17°C° 0 mm 6 mps 752 mmHg 60%
    09:00 +18°C° 0 mm 7 mps 752 mmHg 53%
    10:00 +20°C° 0 mm 7 mps 752 mmHg 50%
    11:00 +21°C° 0 mm 6 mps 752 mmHg 46%
    12:00 +22°C° 0 mm 6 mps 752 mmHg 43%
    13:00 +22°C° 0 mm 6 mps 752 mmHg 42%
    14:00 +23°C° 0 mm 6 mps 751 mmHg 41%
    15:00 +23°C° 0 mm 6 mps 751 mmHg 41%
    16:00 +22°C° 0 mm 6 mps 751 mmHg 44%
    17:00 +22°C° 0 mm 5 mps 752 mmHg 47%
    18:00 +21°C° 0 mm 4 mps 752 mmHg 50%
    19:00 +19°C° 0 mm 4 mps 752 mmHg 54%
    20:00 +18°C° 0 mm 4 mps 752 mmHg 57%
    21:00 +15°C° 0 mm 4 mps 752 mmHg 61%
    22:00 +16°C° 0 mm 3 mps 752 mmHg 64%
    23:00 +14°C° 0 mm 3 mps 753 mmHg 66%

    Tomorrow, 19 August, Sunday

    Time Temperature Precipitation Wind Pressure Humidity
    00:00 +13°C° 0 mm 3 mps 753 mmHg 69%
    01:00 +13°C° 0 mm 3 mps 753 mmHg 72%
    02:00 +12°C° 0 mm 3 mps 753 mmHg 74%
    03:00 +12°C° 0 mm 3 mps 753 mmHg 77%
    04:00 +12°C° 0 mm 3 mps 753 mmHg 77%
    05:00 +12°C° 0 mm 3 mps 753 mmHg 77%
    06:00 +12°C° 0 mm 3 mps 753 mmHg 78%
    07:00 +14°C° 0 mm 4 mps 753 mmHg 70%
    08:00 +16°C° 0 mm 5 mps 753 mmHg 63%
    09:00 +17°C° 0 mm 5 mps 753 mmHg 56%
    10:00 +19°C° 0 mm 5 mps 753 mmHg 53%
    11:00 +20°C° 0 mm 5 mps 753 mmHg 49%
    12:00 +21°C° 0 mm 5 mps 753 mmHg 46%
    13:00 +22°C° 0 mm 5 mps 753 mmHg 45%
    14:00 +22°C° 0 mm 5 mps 752 mmHg 44%
    15:00 +22°C° 0 mm 5 mps 752 mmHg 43%
    16:00 +22°C° 0 mm 4 mps 752 mmHg 46%
    17:00 +21°C° 0 mm 4 mps 752 mmHg 48%
    18:00 +21°C° 0 mm 3 mps 752 mmHg 51%
    19:00 +19°C° 0 mm 3 mps 752 mmHg 55%
    20:00 +17°C° 0 mm 2 mps 752 mmHg 58%
    21:00 +16°C° 0 mm 2 mps 752 mmHg 62%
    22:00 +15°C° 0 mm 2 mps 752 mmHg 63%
    23:00 +15°C° 0 mm 1 mps 753 mmHg 65%

    Day after tomorrow, 20 August, Monday

    Time Temperature Precipitation Wind Pressure Humidity
    00:00 +14°C° 0 mm 1 mps 753 mmHg 67%
    01:00 +14°C° 0 mm 1 mps 753 mmHg 68%
    02:00 +13°C° 0 mm 1 mps 753 mmHg 69%
    03:00 +13°C° 0 mm 1 mps 752 mmHg 71%
    04:00 +13°C° 0 mm 1 mps 753 mmHg 71%
    05:00 +14°C° 0 mm 1 mps 753 mmHg 70%
    06:00 +14°C° 0 mm 1 mps 753 mmHg 70%
    07:00 +16°C° 0 mm 1 mps 753 mmHg 64%
    08:00 +19°C° 0 mm 1 mps 753 mmHg 57%
    09:00 +21°C° 0 mm 1 mps 753 mmHg 51%
    10:00 +22°C° 0 mm 1 mps 753 mmHg 47%
    11:00 +23°C° 0 mm 1 mps 753 mmHg 43%
    12:00 +25°C° 0 mm 1 mps 753 mmHg 39%
    13:00 +25°C° 0 mm 1 mps 752 mmHg 37%
    14:00 +26°C° 0 mm 1 mps 752 mmHg 36%
    15:00 +26°C° 0 mm 1 mps 752 mmHg 35%
    16:00 +26°C° 0 mm 1 mps 751 mmHg 38%
    17:00 +25°C° 0 mm 1 mps 751 mmHg 41%
    18:00 +25°C° 0 mm 1 mps 751 mmHg 44%
    19:00 +23°C° 0 mm 1 mps 751 mmHg 47%
    20:00 +21°C° 0 mm 1 mps 751 mmHg 50%
    21:00 +20°C° 0 mm 1 mps 751 mmHg 53%
    22:00 +19°C° 0 mm 1 mps 751 mmHg 54%
    23:00 +19°C° 0 mm 1 mps 751 mmHg 56%

    21 August, Tuesday

    Time Temperature Precipitation Wind Pressure Humidity
    00:00 +18°C° 0 mm 1 mps 751 mmHg 58%
    01:00 +18°C° 0 mm 1 mps 751 mmHg 59%
    02:00 +18°C° 0 mm 1 mps 751 mmHg 60%
    03:00 +17°C° 0 mm 2 mps 751 mmHg 61%
    04:00 +17°C° 0 mm 2 mps 751 mmHg 61%
    05:00 +17°C° 0 mm 2 mps 751 mmHg 61%
    06:00 +17°C° 0 mm 2 mps 751 mmHg 62%
    07:00 +19°C° 0 mm 2 mps 751 mmHg 56%
    08:00 +21°C° 0 mm 3 mps 751 mmHg 50%
    09:00 +24°C° 0 mm 3 mps 751 mmHg 44%
    10:00 +25°C° 0 mm 3 mps 751 mmHg 41%
    11:00 +27°C° 0 mm 3 mps 751 mmHg 38%
    12:00 +28°C° 0 mm 3 mps 751 mmHg 36%
    13:00 +28°C° 0 mm 3 mps 751 mmHg 35%
    14:00 +29°C° 0 mm 3 mps 750 mmHg 34%
    15:00 +29°C° 0 mm 3 mps 750 mmHg 33%
    16:00 +28°C° 0 mm 3 mps 750 mmHg 37%
    17:00 +27°C° 0 mm 3 mps 750 mmHg 40%
    18:00 +27°C° 0 mm 2 mps 750 mmHg 43%
    19:00 +25°C° 0 mm 2 mps 750 mmHg 46%
    20:00 +23°C° 0 mm 2 mps 750 mmHg 48%
    21:00 +21°C° 0 mm 2 mps 750 mmHg 50%
    22:00 +20°C° 0 mm 2 mps 750 mmHg 50%
    23:00 +20°C° 0 mm 2 mps 750 mmHg 50%

    22 August, Wednesday

    Time Temperature Precipitation Wind Pressure Humidity
    00:00 +19°C° 0 mm 2 mps 749 mmHg 50%
    01:00 +19°C° 0 mm 2 mps 749 mmHg 50%
    02:00 +19°C° 0 mm 2 mps 749 mmHg 50%
    03:00 +18°C° 0 mm 3 mps 749 mmHg 50%
    04:00 +18°C° 0 mm 3 mps 749 mmHg 51%
    05:00 +18°C° 0 mm 3 mps 749 mmHg 52%
    06:00 +18°C° 0 mm 3 mps 749 mmHg 52%
    07:00 +20°C° 0 mm 4 mps 749 mmHg 47%
    08:00 +23°C° 0 mm 4 mps 749 mmHg 42%
    09:00 +26°C° 0 mm 5 mps 749 mmHg 37%
    10:00 +27°C° 0 mm 5 mps 748 mmHg 34%
    11:00 +29°C° 0 mm 6 mps 748 mmHg 31%
    12:00 +30°C° 0 mm 7 mps 748 mmHg 28%
    13:00 +30°C° 0 mm 7 mps 748 mmHg 29%
    14:00 +32°C° 0 mm 7 mps 747 mmHg 29%
    15:00 +32°C° 0 mm 7 mps 747 mmHg 29%
    16:00 +30°C° 0 mm 6 mps 747 mmHg 33%
    17:00 +29°C° 0 mm 5 mps 747 mmHg 36%
    18:00 +28°C° 0 mm 4 mps 747 mmHg 40%
    19:00 +27°C° 0 mm 4 mps 747 mmHg 42%
    20:00 +25°C° 0 mm 3 mps 747 mmHg 45%
    21:00 +24°C° 0 mm 3 mps 747 mmHg 47%
    22:00 +22°C° 0.1 mm 3 mps 747 mmHg 54%
    23:00 +21°C° 0.1 mm 3 mps 747 mmHg 61%

    23 August, Thursday

    Time Temperature Precipitation Wind Pressure Humidity
    00:00 +21°C° 0.1 mm 2 mps 747 mmHg 68%
    01:00 +20°C° 0.1 mm 2 mps 748 mmHg 72%
    02:00 +20°C° 0.1 mm 2 mps 748 mmHg 76%
    03:00 +19°C° 0.1 mm 2 mps 748 mmHg 80%
    04:00 +19°C° 0 mm 2 mps 748 mmHg 79%
    05:00 +20°C° 0 mm 1 mps 748 mmHg 78%
    06:00 +19°C° 0 mm 1 mps 748 mmHg 77%
    07:00 +21°C° 0 mm 1 mps 748 mmHg 69%
    08:00 +22°C° 0 mm 1 mps 749 mmHg 61%
    09:00 +24°C° 0 mm 1 mps 749 mmHg 53%
    10:00 +25°C° 0 mm 2 mps 749 mmHg 49%
    11:00 +26°C° 0 mm 2 mps 748 mmHg 46%
    12:00 +28°C° 0 mm 2 mps 748 mmHg 42%
    13:00 +28°C° 0 mm 2 mps 748 mmHg 41%
    14:00 +28°C° 0 mm 3 mps 748 mmHg 41%
    15:00 +29°C° 0 mm 3 mps 748 mmHg 40%
    16:00 +28°C° 0 mm 3 mps 748 mmHg 43%
    17:00 +27°C° 0 mm 2 mps 747 mmHg 45%
    18:00 +27°C° 0 mm 2 mps 747 mmHg 48%
    19:00 +25°C° 0 mm 2 mps 747 mmHg 49%
    20:00 +23°C° 0 mm 2 mps 747 mmHg 50%
    21:00 +21°C° 0 mm 2 mps 747 mmHg 51%
    22:00 +21°C° 0 mm 1 mps 747 mmHg 51%
    23:00 +21°C° 0 mm 1 mps 747 mmHg 52%
    Show more